Orbital Elements at Epoch 2459200.5 (2020-Dec-17.0) TDB
Reference: JPL 17 (heliocentric ecliptic J2000)
Element | Value | Uncertainty (1-sigma) | Units |
e | .1612486060995642 | 4.2013e-08 | |
a | 2.927078337140134 | 2.1218e-08 | au |
q | 2.455091035332058 | 1.1891e-07 | au |
i | 10.70549678501792 | 4.9464e-06 | deg |
node | 281.562757393829 | 3.333e-05 | deg |
peri | 346.477286147303 | 3.9726e-05 | deg |
M | 76.02946608215964 | 2.2017e-05 | deg |
tp | 2458814.195839858384 (2019-Nov-26.69583986) | 0.00011124 | TDB |
period | 1829.152627491809 5.01 | 1.9889e-05 5.445e-08 | d yr |
n | .1968124445107914 | 2.14e-09 | deg/d |
Q | 3.399065638948211 | 2.4639e-08 | au |
|
| | Orbit Determination Parameters
Additional Information
|